[[{"header":{"parameterUnit":"m.s-1","parameterCategory":1,"la1":30.2991,"la2":30.254,"lo1":-89.0895,"lo2":-89.0444,"dy":0.0017,"dx":0.0017,"nx":28,"ny":28,"refTime":"2024-03-14T09:00:00:Z","depth":0,"parameterNumber":2,"parameterNumberName":"U-component_of_WINDS"},"data":[0,0,0,0,0,0,0,0,0,0,0,0,0,0,0,0,0,0,0,0,0,0,0,0,0,0,0,0,0,0,0,0,0,0,0,0,0,0,0,0,0,0,0,0,0,0,0,0,0,0,0,0,0,0,0,0,0,0,-1.3202,-1.3202,0,-1.3185,-1.3185,-1.3184,-1.3133,-1.3132,-1.3131,-1.313,-1.3114,-1.3114,-1.3115,0,0,0,0,0,0,0,0,0,0,0,0,0,-1.3193,-1.3193,-1.3202,-1.3202,-1.3202,-1.3185,-1.3185,-1.3184,-1.3133,-1.3132,-1.3131,-1.3129,-1.3113,-1.3114,-1.3115,0,0,0,0,0,0,0,0,0,0,0,0,0,-1.3188,-1.3194,-1.3202,-1.3174,-1.3172,-1.3185,-1.3185,-1.3184,-1.3134,-1.3132,-1.313,-1.3129,-1.3113,-1.3114,-1.3115,-1.3154,0,0,-1.3118,-1.3118,0,0,0,0,0,0,0,0,-1.3189,-1.3189,-1.3179,-1.3176,-1.3173,-1.3159,-1.3175,-1.3174,-1.3134,-1.3148,-1.313,-1.3128,-1.313,-1.313,-1.313,-1.3154,-1.3153,-1.3118,-1.3118,-1.3119,-1.3119,0,0,0,0,0,0,0,-1.3189,-1.3189,-1.3195,-1.3179,-1.3175,-1.3163,-1.3161,-1.3175,-1.3149,-1.3147,-1.3143,-1.3142,-1.3128,-1.3129,-1.3129,-1.3153,-1.3118,-1.3119,-1.3119,-1.312,-1.3207,-1.3209,0,0,0,0,0,0,-1.3193,-1.319,-1.3196,-1.3195,-1.3177,-1.3165,-1.3162,-1.3166,-1.3149,-1.3144,-1.3143,-1.3139,-1.3129,-1.3128,-1.3129,-1.3173,-1.3119,-1.312,-1.312,-1.3205,-1.3208,-1.321,0,0,0,0,0,0,-1.3193,-1.3194,-1.3197,-1.3191,-1.3191,-1.3167,-1.3171,-1.3166,-1.3167,-1.3146,-1.3141,-1.3149,-1.3127,-1.3127,-1.3148,-1.3171,-1.312,-1.3121,-1.3203,-1.3206,-1.3209,-1.3262,0,0,0,0,0,0,-1.3193,-1.3195,-1.3209,-1.3192,-1.3191,-1.3216,-1.3173,-1.3167,-1.3168,-1.3163,-1.315,-1.3146,-1.3126,-1.3147,-1.3149,-1.3172,-1.3122,-1.3201,-1.3205,-1.3208,-1.3258,-1.3266,-1.3273,0,0,0,0,0,-1.3193,-1.3225,-1.321,-1.3211,-1.3208,-1.3217,-1.3217,-1.3193,-1.3171,-1.3185,-1.3171,-1.3146,-1.3169,-1.315,-1.3151,-1.3175,-1.32,-1.3204,-1.3207,-1.3255,-1.3265,-1.3273,0,0,0,0,0,0,-1.3246,-1.3222,-1.3205,-1.3232,-1.3227,-1.3209,-1.3226,-1.3204,-1.3206,-1.3201,-1.3172,-1.3169,-1.3194,-1.3187,-1.3165,-1.3212,-1.318,-1.3185,-1.3215,-1.3225,-1.3232,-1.3233,-1.3122,0,0,0,0,0,-1.326,-1.3269,-1.3249,-1.3275,-1.3273,-1.325,-1.3253,-1.3235,-1.3229,-1.3226,-1.3214,-1.321,-1.3216,-1.322,-1.3224,-1.3258,-1.3253,-1.3275,-1.3282,-1.3289,-1.3292,-1.3308,-1.3317,-1.3223,-1.3223,-1.3223,0,0,-1.3291,-1.3279,-1.3287,-1.3285,-1.3279,-1.3289,-1.3249,-1.3261,-1.3268,-1.3228,-1.3247,-1.3238,-1.3231,-1.3258,-1.3269,-1.3252,-1.3318,-1.3294,-1.3299,-1.3299,-1.3313,-1.3322,-1.333,-1.3225,-1.3225,-1.3224,0,0,-1.3351,-1.3344,-1.3364,-1.3359,-1.335,-1.3334,-1.334,-1.3324,-1.3317,-1.3335,-1.3305,-1.3314,-1.3325,-1.3321,-1.332,-1.338,-1.3357,-1.3383,-1.3421,-1.3437,-1.3445,-1.3451,-1.3471,-1.3479,-1.3387,-1.3387,-1.3387,0,-1.339,-1.3403,-1.3377,-1.3391,-1.3391,-1.3356,-1.3377,-1.3373,-1.3367,-1.3368,-1.3349,-1.3362,-1.3355,-1.338,-1.3395,-1.3396,-1.34,-1.3383,-1.3446,-1.3452,-1.3458,-1.3476,-1.3484,-1.339,-1.339,-1.3389,-1.3389,0,-1.3451,-1.3461,-1.3479,-1.3472,-1.3474,-1.3492,-1.3469,-1.3475,-1.3458,-1.3444,-1.3463,-1.3454,-1.3455,-1.346,-1.3444,-1.3483,-1.3473,-1.3451,-1.3418,-1.347,-1.3487,-1.3494,-1.3394,-1.3393,-1.3392,-1.3392,0,0,-1.3542,-1.3522,-1.3528,-1.3525,-1.3513,-1.352,-1.3537,-1.3537,-1.3542,-1.354,-1.3552,-1.3563,-1.3542,-1.3542,-1.3524,-1.3539,-1.3586,-1.3515,-1.3514,-1.3527,-1.3627,-1.3643,-1.3651,-1.3571,-1.3572,-1.3573,-1.3627,0,-1.3597,-1.3623,-1.36,-1.363,-1.3638,-1.3606,-1.362,-1.3615,-1.3603,-1.3609,-1.3597,-1.3604,-1.3578,-1.3577,-1.359,-1.3577,-1.3605,-1.3573,-1.3582,-1.3582,-1.3582,-1.366,-1.3676,-1.3728,-1.3634,-1.3635,-1.3636,0,-1.3665,-1.3664,-1.3695,-1.3681,-1.3683,-1.3696,-1.3695,-1.3702,-1.3695,-1.3686,-1.3686,-1.3665,-1.368,-1.3649,-1.367,-1.3648,-1.3651,-1.3646,-1.3647,-1.3645,-1.3611,-1.3659,-1.3744,-1.3751,-1.3647,-1.3646,-1.3645,0,-1.3726,-1.3734,-1.3752,-1.3751,-1.3735,-1.3745,-1.3739,-1.3731,-1.3733,-1.3733,-1.3734,-1.3736,-1.3736,-1.3739,-1.3719,-1.3699,-1.3742,-1.371,-1.3734,-1.3734,-1.3743,-1.3742,-1.3827,-1.3748,-1.3748,-1.3747,-1.3747,0,-1.379,-1.3809,-1.378,-1.3791,-1.3812,-1.3787,-1.3809,-1.38,-1.3793,-1.3802,-1.3775,-1.3785,-1.3759,-1.3766,-1.3751,-1.3769,-1.377,-1.3763,-1.3758,-1.3764,-1.3765,-1.3764,-1.3759,-1.3749,-1.3749,-1.3749,-1.3748,0,-1.3861,-1.3842,-1.386,-1.3844,-1.384,-1.3857,-1.3843,-1.3853,-1.384,-1.3853,-1.3854,-1.3834,-1.3841,-1.3822,-1.3826,-1.3816,-1.3843,-1.3833,-1.3844,-1.3841,-1.3866,-1.3863,-1.3951,-1.3961,-1.3878,-1.3878,-1.3879,0,-1.3901,-1.3915,-1.3901,-1.3905,-1.39,-1.3907,-1.3909,-1.3886,-1.3889,-1.3883,-1.3894,-1.3898,-1.39,-1.3913,-1.3899,-1.3902,-1.3891,-1.3922,-1.3892,-1.3897,-1.389,-1.3888,-1.3889,-1.3928,-1.3929,-1.393,-1.3931,0,-1.3975,-1.3965,-1.3968,-1.3968,-1.3971,-1.397,-1.3968,-1.3973,-1.3948,-1.3953,-1.3959,-1.3961,-1.3965,-1.397,-1.397,-1.3964,-1.3943,-1.3941,-1.3946,-1.3951,-1.3956,-1.3952,-1.386,-1.3938,-1.3937,-1.3937,-1.3937,-1.3936,-1.403,-1.4041,-1.4032,-1.4037,-1.4033,-1.4031,-1.4039,-1.4028,-1.4033,-1.4033,-1.402,-1.4029,-1.4023,-1.402,-1.4017,-1.4024,-1.401,-1.4018,-1.402,-1.4022,-1.4025,-1.3957,-1.4024,-1.4024,-1.4024,-1.4024,-1.4024,0,-1.4101,-1.4094,-1.4099,-1.4095,-1.4099,-1.408,-1.4076,-1.408,-1.4088,-1.4084,-1.4087,-1.4094,-1.4099,-1.4086,-1.4088,-1.4096,-1.4087,-1.4098,-1.4096,-1.4095,-1.4039,-1.4033,-1.4105,-1.4105,-1.4105,-1.4105,-1.4105,-1.4105,-1.4138,-1.4155,-1.4144,-1.4158,-1.4151,-1.4159,-1.4159,-1.4157,-1.4153,-1.4162,-1.4166,-1.4158,-1.415,-1.4152,-1.4155,-1.4151,-1.4153,-1.4167,-1.416,-1.4107,-1.4099,-1.4091,-1.4085,-1.4168,-1.4168,-1.4215,-1.4215,-1.4215]},{"header":{"parameterUnit":"m.s-1","parameterCategory":1,"la1":30.2991,"la2":30.254,"lo1":-89.0895,"lo2":-89.0444,"dy":0.0017,"dx":0.0017,"nx":28,"ny":28,"refTime":"2024-03-14T09:00:00:Z","depth":0,"parameterNumber":3,"parameterNumberName":"V-component_of_WINDS"},"data":[0,0,0,0,0,0,0,0,0,0,0,0,0,0,0,0,0,0,0,0,0,0,0,0,0,0,0,0,0,0,0,0,0,0,0,0,0,0,0,0,0,0,0,0,0,0,0,0,0,0,0,0,0,0,0,0,0,0,1.5823,1.5824,0,1.5919,1.592,1.5921,1.598,1.5981,1.5981,1.5981,1.6079,1.6081,1.6083,0,0,0,0,0,0,0,0,0,0,0,0,0,1.5691,1.5693,1.5823,1.5824,1.5825,1.5919,1.592,1.5922,1.598,1.5981,1.5981,1.5981,1.6078,1.6081,1.6083,0,0,0,0,0,0,0,0,0,0,0,0,0,1.5763,1.5693,1.5823,1.5866,1.5871,1.5919,1.592,1.5922,1.598,1.5981,1.5981,1.5981,1.6077,1.608,1.6084,1.6096,0,0,1.6094,1.6096,0,0,0,0,0,0,0,0,1.5759,1.5768,1.5858,1.5863,1.5868,1.5938,1.5909,1.598,1.598,1.5939,1.5981,1.5982,1.6031,1.6039,1.6056,1.61,1.6105,1.6095,1.6097,1.6098,1.6099,0,0,0,0,0,0,0,1.5754,1.5764,1.5861,1.586,1.5866,1.5881,1.5891,1.5923,1.5981,1.5942,1.5947,1.5957,1.6034,1.6052,1.6058,1.6106,1.6094,1.6098,1.61,1.6101,1.6168,1.6168,0,0,0,0,0,0,1.5742,1.576,1.5858,1.5864,1.5814,1.5883,1.5895,1.5915,1.5981,1.5991,1.5957,1.596,1.6046,1.6054,1.6062,1.6082,1.6098,1.6101,1.6103,1.6168,1.6168,1.6168,0,0,0,0,0,0,1.5739,1.575,1.5854,1.5813,1.5827,1.5884,1.5907,1.5917,1.5935,1.5992,1.6003,1.5964,1.6047,1.6057,1.6088,1.6087,1.6103,1.6106,1.6169,1.6168,1.6168,1.6122,0,0,0,0,0,0,1.5735,1.5749,1.5754,1.5813,1.5829,1.5878,1.5907,1.5919,1.5941,1.5946,1.6002,1.6012,1.6048,1.6082,1.6091,1.6092,1.6109,1.6169,1.6169,1.6168,1.6124,1.612,1.6117,0,0,0,0,0,1.573,1.5736,1.5754,1.5765,1.5837,1.5877,1.5887,1.5929,1.594,1.5946,1.5983,1.601,1.6085,1.6085,1.6095,1.6097,1.6169,1.6169,1.6168,1.6125,1.6121,1.6117,0,0,0,0,0,0,1.5675,1.5745,1.5765,1.579,1.5828,1.5887,1.5896,1.5922,1.5956,1.5959,1.6009,1.6021,1.6047,1.6075,1.6074,1.6113,1.613,1.6132,1.6094,1.609,1.6087,1.608,1.6112,0,0,0,0,0,1.5666,1.5693,1.5753,1.5769,1.5787,1.5838,1.5857,1.5886,1.5927,1.5943,1.5982,1.602,1.6053,1.6073,1.6106,1.6128,1.6142,1.6134,1.6131,1.6128,1.6128,1.6144,1.6142,1.6166,1.6166,1.6166,0,0,1.5647,1.5689,1.5703,1.5759,1.5792,1.5819,1.5851,1.5878,1.59,1.5947,1.5979,1.6009,1.6055,1.6082,1.6096,1.6106,1.6125,1.6127,1.6124,1.6127,1.6143,1.6141,1.6139,1.6165,1.6165,1.6165,0,0,1.5628,1.5661,1.568,1.5712,1.5761,1.5795,1.5799,1.5856,1.5878,1.5911,1.5948,1.5973,1.6028,1.606,1.6083,1.6077,1.6104,1.6087,1.6068,1.6083,1.6081,1.608,1.6079,1.6078,1.6087,1.6087,1.6087,0,1.5598,1.5641,1.5686,1.5712,1.5736,1.5781,1.5801,1.583,1.5887,1.5903,1.5914,1.5984,1.6018,1.6054,1.6053,1.607,1.6077,1.6081,1.6078,1.6077,1.6076,1.6077,1.6076,1.6085,1.6085,1.6085,1.6085,0,1.5603,1.5633,1.5642,1.5697,1.5723,1.5745,1.5794,1.5814,1.5841,1.5875,1.5908,1.5951,1.5994,1.6005,1.6031,1.6045,1.605,1.6068,1.6087,1.6071,1.6072,1.6072,1.6081,1.6082,1.6083,1.6083,0,0,1.5551,1.5632,1.5635,1.5661,1.5719,1.5743,1.5768,1.5811,1.5829,1.5866,1.589,1.5935,1.5954,1.598,1.601,1.6023,1.6018,1.604,1.6042,1.6036,1.6038,1.6025,1.6024,1.6036,1.6036,1.6036,1.6035,0,1.5541,1.5589,1.5631,1.5664,1.5693,1.5737,1.5759,1.5797,1.5829,1.5858,1.5893,1.5926,1.5946,1.5963,1.5978,1.6015,1.6019,1.6016,1.6059,1.606,1.6047,1.6025,1.601,1.6007,1.6036,1.6036,1.6036,0,1.5536,1.5573,1.5609,1.5667,1.568,1.5699,1.5743,1.577,1.5815,1.5838,1.5868,1.59,1.593,1.5944,1.5986,1.5983,1.6003,1.6024,1.6025,1.6032,1.6047,1.6032,1.6007,1.6007,1.6037,1.6037,1.6036,0,1.5496,1.5555,1.5585,1.5606,1.5673,1.5686,1.5714,1.576,1.5784,1.5822,1.5838,1.5879,1.5901,1.5932,1.5975,1.5981,1.6013,1.6031,1.6033,1.6032,1.6039,1.6038,1.6018,1.6049,1.6049,1.6049,1.6049,0,1.5481,1.5502,1.5569,1.5587,1.5612,1.566,1.5683,1.5716,1.5756,1.5782,1.5822,1.5845,1.5899,1.593,1.5963,1.5994,1.6003,1.6023,1.6032,1.602,1.6018,1.6034,1.6036,1.6049,1.6049,1.6049,1.6049,0,1.5441,1.5487,1.5523,1.5583,1.5599,1.5615,1.5668,1.5688,1.5722,1.5755,1.5765,1.5819,1.5857,1.5903,1.5954,1.5977,1.6005,1.6018,1.599,1.5996,1.5996,1.5996,1.5987,1.5989,1.6017,1.6017,1.6017,0,1.5429,1.5447,1.551,1.5531,1.5558,1.559,1.5616,1.5664,1.5688,1.5742,1.5755,1.5796,1.5832,1.589,1.5934,1.5975,1.599,1.5984,1.5996,1.5984,1.5991,1.599,1.5993,1.5981,1.598,1.598,1.5979,0,1.5404,1.5426,1.5461,1.5504,1.5533,1.5569,1.5607,1.5621,1.5677,1.5703,1.5742,1.577,1.5824,1.5865,1.5911,1.5941,1.597,1.5975,1.5978,1.5967,1.5951,1.5961,1.5983,1.5975,1.5976,1.5976,1.5976,1.5976,1.5379,1.5397,1.5445,1.5483,1.5517,1.5552,1.5574,1.5612,1.5646,1.5694,1.5721,1.576,1.5806,1.5872,1.59,1.5932,1.5942,1.5946,1.5947,1.5948,1.5945,1.5945,1.594,1.5941,1.5941,1.5941,1.5941,0,1.5357,1.5391,1.5425,1.5477,1.5507,1.5532,1.5576,1.5599,1.5634,1.5674,1.5709,1.5755,1.5795,1.5843,1.5887,1.5903,1.5917,1.5913,1.5913,1.5919,1.5933,1.5927,1.59,1.59,1.59,1.59,1.59,1.59,1.5349,1.5382,1.541,1.546,1.5494,1.5533,1.5556,1.5589,1.5622,1.5672,1.5706,1.5737,1.5781,1.5828,1.5866,1.5879,1.5894,1.5886,1.5903,1.5915,1.5918,1.5921,1.5916,1.5888,1.5888,1.5887,1.5887,1.5887]}]]